Regional Weather Roundup
Issued by NWS Bismarck, ND

Home | Current Version | Previous Version | Text Only | Print | Product List | Glossary On
Versions: 1 2 3 4 5 6 7 8 9 10 11 12 13 14 15 16 17 18 19 20 21 22 23 24 25 26 27 28 29 30 31 32 33 34 35 36 37 38 39 40 41 42 43 44 45 46 47 48 49 50
000
ASUS43 KBIS 052110
RWRBIS

NWR BROADCAST TEXT
NATIONAL WEATHER SERVICE BISMARCK ND
300 PM CST THU MAR 05 2015

NOTE: "FAIR" INDICATES FEW OR NO CLOUDS BELOW 12,000 FEET WITH NO
SIGNIFICANT WEATHER AND/OR OBSTRUCTIONS TO VISIBILITY.


CITY           SKY/WX    TMP DP  RH WIND       PRES   REMARKS
WILLISTON      SUNNY     35  13  40 W12       30.02F
MINOT          SUNNY     25  10  53 SW14      30.01F WCI  13
MINOT AFB      SUNNY     24  14  64 SW10      30.01F WCI  14
BISMARCK       SUNNY     38   9  30 S12G17    30.05F
DICKINSON      SUNNY     42  10  27 NW20G29   30.00S
GARRISON         N/A     29  14  53 W10       30.03F WCI  20
HETTINGER ARPT SUNNY     44  11  26 NW25G32   30.03F
JAMESTOWN      SUNNY     26  11  52 S20       30.11F WCI  12
BEACH          FAIR      41  10  28 NW17G25   30.04S
CARRINGTON     FAIR      27  14  59 MISG      30.08F
CROSBY         FAIR      30  14  51 SW13      30.00F
HARVEY         FAIR      25  12  58 SW15      30.05F WCI  12
HAZEN          FAIR      36  10  35 NW14      30.04F
LINTON         FAIR      32   9  37 S16       30.08F
MANDAN         FAIR      37   9  30 SW10G18   30.04F
OAKES            N/A     23   9  54 S23G31    30.19F WCI   7
RUGBY          FAIR      21  12  68 SW13      30.03F WCI   9
TIOGA          FAIR      28  14  54 W15       30.03S WCI  17
WATFORD CITY   FAIR      34  12  40 W13       30.02S
$$

CITY           SKY/WX    TMP DP  RH WIND       PRES   REMARKS
GRAND FORKS    SUNNY     22  10  60 S24G30    30.16F WCI   5
GRAND FORKS AF SUNNY     27   8  44 SW18      30.13F WCI  13
DEVILS LAKE    SUNNY     25  12  58 SW13      30.06F WCI  13
FARGO          SUNNY     22   6  50 S23       30.24F WCI   6
CANDO          FAIR      25  12  58 SW13      30.04F WCI  13
CAVALIER       FAIR      23   9  54 S17G24    30.09F WCI   9
GWINNER        CLEAR     25   9  50 SW25      30.21F WCI   9
ROLLA          FAIR      16   5  62 SW18      30.00F WCI  -1
WALHALLA         N/A     23   9  54 SW10G18   30.09F WCI  12
$$

CITY           SKY/WX    TMP DP  RH WIND       PRES   REMARKS
ABERDEEN       SUNNY     23  11  60 S20       30.22F WCI   8
MOBRIDGE       SUNNY     36   8  31 S15       30.08F
BUFFALO          N/A     45  11  25 NW29G39   29.98S
RAPID CITY     MOSUNNY   45  14  28 VRB6      30.08F
GLASGOW        SUNNY     47  14  26 W14       30.03F
SIDNEY         SUNNY     43  12  28 W13G20    30.06F
WOLF POINT     SUNNY     49  16  26 W20       30.04F
GLENDIVE       SUNNY     45  14  29 NW18G24   30.06F
MILES CITY     SUNNY     49  13  23 MISG      30.08F
BAKER          SUNNY     43  12  28 NW20G28   30.05F
$$

CITY           SKY/WX    TMP DP  RH WIND       PRES   REMARKS
BILLINGS       PTSUNNY   45  14  28 SW16      30.11F
GREAT FALLS    FAIR      51   8  17 W25G32    30.09S
REGINA         MOSUNNY   27  19  74 W14       29.94F WCI  15
ESTEVAN        MOSUNNY   27  12  54 SW13      29.98F WCI  16
$$




USA.gov is the U.S. government's official web portal to all federal, state and local government web resources and services.